C/2010 M1 ( Gibbs )

Japanese version
Home page
Updated on August 29, 2010

---------------------------------------------------------------------

* Profile

Discovery Date June 22, 2010
Magnitude 20.9 mag
Discoverer A. R. Gibbs (Mount Lemmon Survey)

* Orbital Elements

T 2012 Feb. 7.840 TT                                    MPC
q   2.29869              (2000.0)            P               Q
                   Peri.  265.318       +0.187830       +0.152427
                   Node    82.150       +0.288953       +0.935593
e   1.0            Incl.   78.373       -0.938736       +0.318484
From 15 observations 2010 June 22-23.

* Finding Charts

* Magnitudes Graph

        m1 = 8.5 + 5 log d + 10.0 log r

---------------------------------------------------------------------

The orbital elements are published on M.P.E.C. 2010-M51.
The charts are made with StellaNavigator Ver.8 (AstroArts).
The magnitudes graphs are made with Comet for Windows.

---------------------------------------------------------------------

Copyright(C) Seiichi Yoshida (comet@aerith.net). All rights reserved.